When you browse on this site, cookies collect data to enhance your experience and personalize the content and advertising you see.
Visit our Privacy Policy to learn more. By continuing to use the site, you agree to this use of cookies and data.
EN

Hourly Weather Golden Sands

Today, 16 July, Thursday

Time Temperature Precipitation Wind Pressure Humidity
00:00 +19°C° 0 mm 1 mps 760 mmHg 62%
01:00 +19°C° 0 mm 1 mps 760 mmHg 64%
02:00 +19°C° 0 mm 1 mps 760 mmHg 65%
03:00 +19°C° 0 mm 1 mps 759 mmHg 65%
04:00 +19°C° 0 mm 1 mps 759 mmHg 65%
05:00 +19°C° 0 mm 1 mps 759 mmHg 64%
06:00 +21°C° 0 mm 1 mps 759 mmHg 60%
07:00 +22°C° 0 mm 1 mps 759 mmHg 55%
08:00 +24°C° 0 mm 2 mps 759 mmHg 51%
09:00 +25°C° 0 mm 2 mps 759 mmHg 49%
10:00 +25°C° 0 mm 2 mps 759 mmHg 47%
11:00 +26°C° 0 mm 2 mps 759 mmHg 45%
12:00 +27°C° 0 mm 2 mps 759 mmHg 44%
13:00 +27°C° 0 mm 3 mps 758 mmHg 42%
14:00 +27°C° 0 mm 3 mps 758 mmHg 41%
15:00 +27°C° 0 mm 3 mps 758 mmHg 42%
16:00 +26°C° 0 mm 3 mps 757 mmHg 44%
17:00 +26°C° 0 mm 3 mps 757 mmHg 45%
18:00 +25°C° 0 mm 3 mps 757 mmHg 49%
19:00 +22°C° 0 mm 3 mps 757 mmHg 53%
20:00 +21°C° 0 mm 3 mps 758 mmHg 57%
21:00 +20°C° 0 mm 2 mps 758 mmHg 59%
22:00 +20°C° 0 mm 2 mps 758 mmHg 61%
23:00 +20°C° 0 mm 1 mps 758 mmHg 63%

Tomorrow, 17 July, Friday

Time Temperature Precipitation Wind Pressure Humidity
00:00 +20°C° 0 mm 1 mps 758 mmHg 64%
01:00 +20°C° 0 mm 1 mps 758 mmHg 65%
02:00 +20°C° 0 mm 1 mps 758 mmHg 65%
03:00 +18°C° 0 mm 2 mps 757 mmHg 64%
04:00 +18°C° 0 mm 2 mps 757 mmHg 63%
05:00 +18°C° 0 mm 2 mps 757 mmHg 62%
06:00 +20°C° 0 mm 2 mps 757 mmHg 57%
07:00 +23°C° 0 mm 2 mps 758 mmHg 51%
08:00 +25°C° 0 mm 2 mps 758 mmHg 46%
09:00 +26°C° 0 mm 2 mps 758 mmHg 45%
10:00 +27°C° 0 mm 3 mps 758 mmHg 44%
11:00 +28°C° 0 mm 3 mps 758 mmHg 44%
12:00 +28°C° 0 mm 3 mps 758 mmHg 44%
13:00 +28°C° 0 mm 4 mps 758 mmHg 45%
14:00 +28°C° 0 mm 4 mps 757 mmHg 45%
15:00 +28°C° 0 mm 4 mps 757 mmHg 46%
16:00 +28°C° 0 mm 4 mps 757 mmHg 46%
17:00 +27°C° 0 mm 4 mps 757 mmHg 46%
18:00 +25°C° 0 mm 3 mps 757 mmHg 52%
19:00 +24°C° 0 mm 3 mps 757 mmHg 59%
20:00 +21°C° 0 mm 2 mps 757 mmHg 65%
21:00 +20°C° 0 mm 2 mps 757 mmHg 67%
22:00 +20°C° 0 mm 2 mps 758 mmHg 69%
23:00 +19°C° 0 mm 2 mps 758 mmHg 70%

Day after tomorrow, 18 July, Saturday

Time Temperature Precipitation Wind Pressure Humidity
00:00 +19°C° 0 mm 2 mps 758 mmHg 70%
01:00 +19°C° 0 mm 2 mps 758 mmHg 70%
02:00 +19°C° 0 mm 3 mps 758 mmHg 70%
03:00 +19°C° 0 mm 3 mps 757 mmHg 71%
04:00 +19°C° 0 mm 3 mps 757 mmHg 72%
05:00 +19°C° 0 mm 4 mps 757 mmHg 72%
06:00 +21°C° 0 mm 4 mps 757 mmHg 67%
07:00 +23°C° 0 mm 5 mps 757 mmHg 61%
08:00 +26°C° 0 mm 6 mps 757 mmHg 55%
09:00 +27°C° 0 mm 6 mps 757 mmHg 53%
10:00 +29°C° 0 mm 6 mps 757 mmHg 51%
11:00 +30°C° 0 mm 7 mps 757 mmHg 50%
12:00 +30°C° 0 mm 7 mps 757 mmHg 51%
13:00 +29°C° 0 mm 8 mps 757 mmHg 52%
14:00 +29°C° 0 mm 8 mps 757 mmHg 53%
15:00 +29°C° 0 mm 8 mps 757 mmHg 57%
16:00 +28°C° 0 mm 7 mps 756 mmHg 61%
17:00 +27°C° 0 mm 7 mps 756 mmHg 65%
18:00 +26°C° 0 mm 6 mps 756 mmHg 73%
19:00 +24°C° 0 mm 6 mps 756 mmHg 81%
20:00 +22°C° 0 mm 5 mps 757 mmHg 89%
21:00 +22°C° 0 mm 5 mps 757 mmHg 90%
22:00 +22°C° 0 mm 5 mps 757 mmHg 91%
23:00 +22°C° 0 mm 5 mps 757 mmHg 92%

19 July, Sunday

Time Temperature Precipitation Wind Pressure Humidity
00:00 +21°C° 0 mm 5 mps 757 mmHg 92%
01:00 +21°C° 0 mm 5 mps 756 mmHg 92%
02:00 +21°C° 0 mm 5 mps 756 mmHg 92%
03:00 +20°C° 0 mm 5 mps 756 mmHg 92%
04:00 +20°C° 0 mm 4 mps 756 mmHg 93%
05:00 +20°C° 0 mm 4 mps 756 mmHg 93%
06:00 +21°C° 0.1 mm 5 mps 757 mmHg 88%
07:00 +22°C° 0.1 mm 6 mps 757 mmHg 83%
08:00 +23°C° 0.1 mm 6 mps 757 mmHg 78%
09:00 +26°C° 0.1 mm 6 mps 757 mmHg 72%
10:00 +27°C° 0.1 mm 5 mps 757 mmHg 67%
11:00 +28°C° 0.1 mm 4 mps 757 mmHg 62%
12:00 +29°C° 0 mm 4 mps 757 mmHg 60%
13:00 +29°C° 0 mm 4 mps 757 mmHg 58%
14:00 +30°C° 0 mm 3 mps 757 mmHg 57%
15:00 +29°C° 0.1 mm 3 mps 757 mmHg 60%
16:00 +29°C° 0.1 mm 3 mps 757 mmHg 63%
17:00 +28°C° 0.1 mm 3 mps 756 mmHg 66%
18:00 +27°C° 0.1 mm 3 mps 757 mmHg 73%
19:00 +25°C° 0.1 mm 2 mps 757 mmHg 80%
20:00 +24°C° 0.1 mm 2 mps 757 mmHg 88%
21:00 +24°C° 0 mm 1 mps 757 mmHg 89%
22:00 +24°C° 0 mm 1 mps 757 mmHg 90%
23:00 +23°C° 0 mm 1 mps 757 mmHg 91%

20 July, Monday

Time Temperature Precipitation Wind Pressure Humidity
00:00 +23°C° 0 mm 2 mps 757 mmHg 88%
01:00 +23°C° 0 mm 2 mps 757 mmHg 86%
02:00 +21°C° 0 mm 3 mps 757 mmHg 83%
03:00 +21°C° 0 mm 4 mps 757 mmHg 83%
04:00 +20°C° 0 mm 4 mps 757 mmHg 82%
05:00 +20°C° 0 mm 4 mps 757 mmHg 81%
06:00 +22°C° 0 mm 4 mps 757 mmHg 74%
07:00 +25°C° 0 mm 4 mps 757 mmHg 67%
08:00 +26°C° 0 mm 4 mps 757 mmHg 60%
09:00 +28°C° 0 mm 4 mps 757 mmHg 53%
10:00 +29°C° 0 mm 3 mps 757 mmHg 47%
11:00 +31°C° 0 mm 2 mps 756 mmHg 41%
12:00 +33°C° 0 mm 3 mps 756 mmHg 39%
13:00 +33°C° 0 mm 4 mps 756 mmHg 37%
14:00 +34°C° 0 mm 4 mps 756 mmHg 35%
15:00 +33°C° 0 mm 5 mps 755 mmHg 35%
16:00 +33°C° 0 mm 5 mps 755 mmHg 35%
17:00 +33°C° 0 mm 6 mps 755 mmHg 35%
18:00 +30°C° 0 mm 6 mps 755 mmHg 39%
19:00 +29°C° 0 mm 6 mps 755 mmHg 43%
20:00 +27°C° 0 mm 5 mps 755 mmHg 48%
21:00 +26°C° 0 mm 6 mps 755 mmHg 47%
22:00 +24°C° 0 mm 6 mps 755 mmHg 47%
23:00 +23°C° 0 mm 6 mps 756 mmHg 46%

21 July, Tuesday

Time Temperature Precipitation Wind Pressure Humidity
00:00 +23°C° 0 mm 6 mps 756 mmHg 50%
01:00 +22°C° 0 mm 7 mps 756 mmHg 54%
02:00 +22°C° 0 mm 7 mps 756 mmHg 58%
03:00 +21°C° 0 mm 7 mps 756 mmHg 61%
04:00 +21°C° 0 mm 7 mps 756 mmHg 64%
05:00 +20°C° 0 mm 8 mps 756 mmHg 68%
06:00 +22°C° 0 mm 7 mps 756 mmHg 63%
07:00 +23°C° 0 mm 7 mps 756 mmHg 59%
08:00 +26°C° 0 mm 6 mps 757 mmHg 55%
09:00 +27°C° 0 mm 6 mps 757 mmHg 50%
10:00 +29°C° 0 mm 5 mps 757 mmHg 45%
11:00 +32°C° 0 mm 4 mps 757 mmHg 40%
12:00 +31°C° 0 mm 3 mps 757 mmHg 39%
13:00 +33°C° 0 mm 3 mps 757 mmHg 37%
14:00 +34°C° 0 mm 2 mps 756 mmHg 36%
15:00 +34°C° 0 mm 3 mps 756 mmHg 36%
16:00 +33°C° 0 mm 3 mps 756 mmHg 36%
17:00 +33°C° 0 mm 4 mps 756 mmHg 36%
18:00 +30°C° 0 mm 4 mps 756 mmHg 45%
19:00 +28°C° 0 mm 5 mps 756 mmHg 55%
20:00 +26°C° 0 mm 5 mps 757 mmHg 65%
21:00 +25°C° 0 mm 4 mps 757 mmHg 65%
22:00 +25°C° 0 mm 4 mps 757 mmHg 65%
23:00 +25°C° 0 mm 4 mps 758 mmHg 65%
Show more